Gao Fen 9-02

operational
NORAD ID: 45625 Int'l Des: 2020-034 Owner: CNSAS Country: CN
LEOCIRCULARRETROGRADESSO

About Gao Fen 9-02

Description loading...

Live Position

Loading 3D Globe...

Upcoming Passes

Altitude History

Altitude vs Time

uPlot chart will show altitude changes over time

Two-Line Element Set

1 45625U 20034B 26015.95701965 .00006984 00000-0 29347-3 0 9992
2 45625 97.5524 171.7176 0012517 234.3971 125.6101 15.23683096312961
Epoch: Jan 15, 2026 • Age: 12 hours

Current Status

Altitude 512.0 km
Velocity 7.61 km/s
Sub-Earth Point 71.07°N, 101.84°E
Launch Date May 31, 2020
Age 5.6 years
Type other

Technical Details

Classification Payload
Mass 1700.00 kg
Dry Mass 1500.00 kg
Total Mass 1700.00 kg
Length 1.90 m
Diameter 1.50 m
Span 4.00 m
Shape Box+2 pan
Manufacturer DFHZ
Bus Type CAST-3000
Phase Status In Orbit
Owner/State CNSAS/CN

Large Constellations

Loading constellations...